Location: Voyageurs National Park
(48.5020°N, 92.9292°W)
Time: 16:37:49
(UTC-05:00)

Cosmos 2263 Rocket - Pass Details

Date: 19 January 2018
Orbit: 822 x 850 km, 71.0° (Epoch: 21 May)

Event Time Altitude Azimuth Distance (km) Brightness Sun altitude
Exits shadow 04:13:05 20° 25° (NNE) 1,841 4.2 -36.3°
Drops below altitude 10° 04:14:40 10° 27° (NNE) 2,432 4.9 -36.1°
Sets 04:17:06 0° 28° (NNE) 3,370 5.8 -35.7°
